Date,TemperatureHighF,TemperatureAvgF,TemperatureLowF,DewpointHighF,DewpointAvgF,DewpointLowF,HumidityHigh,HumidityAvg,HumidityLow,PressureMaxIn,PressureMinIn,WindSpeedMaxMPH,WindSpeedAvgMPH,GustSpeedMaxMPH,PrecipitationSumIn
2013-7-31,77,72,67,61,59,57,82,64,52,30.02,29.89,4,1,5,0.00
2013-8-1,72,70,66,68,64,61,94,83,75,29.88,29.75,21,9,27,0.09
2013-8-2,72,54,62,67,30,-100,96,68,69,29.86,29.79,21,-201,28,0.05
2013-8-3,72,69,65,67,61,57,87,77,62,29.93,29.79,20,10,27,0.00
2013-8-4,71,59,58,62,42,-100,89,67,54,30.05,29.93,15,-86,20,0.00
2013-8-5,71,62,52,56,53,49,90,72,53,30.10,29.99,8,3,9,0.00
2013-8-6,79,68,56,65,58,54,91,71,54,30.01,29.92,8,2,10,0.00
2013-8-7,82,73,66,72,65,60,94,76,59,29.93,29.81,13,5,35,0.16
2013-8-8,73,32,67,70,-23,-100,97,41,76,29.92,29.84,10,-538,16,0.20
2013-8-9,72,41,64,70,-1,-100,97,51,75,29.92,29.82,18,-395,22,0.16
2013-8-10,72,58,65,66,34,-100,90,61,53,30.06,29.92,14,-151,21,0.00
2013-8-11,73,54,56,58,29,-100,92,62,52,30.11,30.01,7,-157,9,0.00
2013-8-12,74,60,62,66,42,-100,85,68,64,30.02,29.82,17,-113,17,0.04
2013-8-13,69,44,60,66,8,-100,96,59,67,29.88,29.73,15,-329,20,0.10
2013-8-14,69,62,57,57,53,47,90,73,48,30.07,29.86,19,10,22,0.00
2013-8-15,70,58,55,58,40,-100,85,64,54,30.11,30.06,18,-84,21,0.00
2013-8-16,73,62,56,61,49,-100,89,70,56,30.18,30.09,8,-39,11,0.00
2013-8-17,78,53,55,64,27,-100,93,62,45,30.25,30.17,7,-186,9,0.00
2013-8-18,75,34,59,64,-18,-100,89,41,61,30.21,30.08,4,-478,7,0.00
2013-8-19,74,26,66,68,-40,-100,89,30,78,30.09,30.01,9,-629,12,0.00
2013-8-20,75,50,62,71,17,-100,88,58,71,30.11,30.04,11,-277,13,0.00
2013-8-21,77,33,63,69,-23,-100,87,37,67,30.13,29.99,8,-524,11,0.00
2013-8-22,76,72,69,72,68,58,94,85,65,30.00,29.89,20,8,25,0.00
2013-8-23,77,68,58,61,57,52,94,71,43,30.17,29.97,10,2,18,0.00
2013-8-24,80,63,51,58,48,-100,95,67,37,30.32,30.17,6,-31,10,0.00
2013-8-25,77,49,55,65,18,-100,91,57,62,30.30,30.12,13,-240,16,0.00
2013-8-26,76,66,70,70,49,-100,94,71,63,30.13,29.91,25,-92,28,0.68
2013-8-27,76,68,69,74,61,-100,96,88,90,29.92,29.83,12,-51,17,0.22
2013-8-28,84,72,70,73,65,-100,98,85,67,29.91,29.80,7,-32,11,0.17
2013-8-29,80,66,64,74,52,-100,99,80,78,30.01,29.91,7,-104,8,0.00
2013-8-30,78,72,67,72,64,-100,95,81,74,29.97,29.71,10,-26,15,0.00
2013-8-31,76,27,71,72,-38,-100,95,32,82,29.80,29.68,12,-631,19,0.28
2013-9-1,81,67,67,74,55,-100,97,82,74,29.79,29.71,8,-82,10,0.12
2013-9-2,76,41,69,73,-3,-100,95,52,87,29.77,29.67,14,-428,17,0.00
2013-9-3,-200,0,200,-100,-100,-100,0,0,100,29.94,29.76,0,-999,0,0.00
2013-9-4,72,37,60,68,-12,-100,92,44,57,29.98,29.93,23,-451,30,0.11
2013-9-5,68,60,51,64,51,38,94,72,41,30.21,29.95,16,5,18,0.00
2013-9-6,65,37,45,53,2,-100,92,55,51,30.27,30.08,8,-300,10,0.00
2013-9-7,68,62,57,63,54,48,95,76,56,30.08,29.86,20,6,23,0.39
2013-9-8,69,53,52,67,30,-100,95,64,50,30.08,29.83,10,-166,15,0.12
2013-9-9,70,19,46,65,-43,-100,94,35,83,30.10,29.93,9,-614,17,0.00
2013-9-10,83,61,70,74,35,-100,87,62,66,29.97,29.88,18,-200,25,0.02
2013-9-11,82,79,72,75,72,68,92,81,75,30.00,29.86,18,7,30,0.00
2013-9-12,73,35,69,70,-17,-100,94,44,85,29.93,29.71,14,-501,19,0.12
2013-9-13,61,13,51,55,-67,-100,89,18,80,30.02,29.76,12,-769,16,0.00
2013-9-14,54,26,49,46,-27,-100,83,39,68,30.12,30.01,15,-492,19,0.00
2013-9-15,66,38,49,56,-3,-100,95,47,61,30.14,30.03,18,-333,18,0.16
2013-9-16,59,24,52,55,-33,-100,96,41,85,30.36,30.06,8,-561,12,0.02
2013-9-17,39,3,39,38,-90,-100,97,7,96,30.46,30.27,2,-925,3,0.01
2013-9-18,48,8,44,43,-76,-100,90,14,80,30.27,30.08,2,-834,3,0.00
2013-9-19,61,3,60,58,-92,-100,91,5,89,30.10,29.98,0,-946,1,0.00
2013-9-20,66,23,60,62,-42,-100,91,33,86,29.98,29.71,8,-630,10,0.00
2013-9-21,68,13,58,67,-68,-100,97,19,73,29.74,29.60,14,-800,17,2.59
2013-9-22,57,24,52,50,-35,-100,86,34,71,30.02,29.74,18,-557,19,0.00
2013-9-23,51,14,47,45,-60,-100,89,23,76,30.14,30.02,2,-720,6,0.00
2013-9-24,63,51,42,55,42,-100,95,79,64,30.15,29.99,7,-30,9,0.00
2013-9-25,72,51,42,55,38,-100,97,75,46,30.00,29.91,7,-62,9,0.00
2013-9-26,71,37,44,56,-1,-100,95,53,50,30.12,29.97,7,-332,13,0.00
2013-9-27,67,28,49,57,-21,-100,96,47,70,30.23,30.12,1,-478,6,0.00
2013-9-28,71,51,48,61,32,-100,98,72,65,30.25,30.12,7,-144,10,0.00
2013-9-29,74,63,53,64,53,-100,88,73,54,30.12,29.95,10,-9,17,0.00
2013-9-30,68,36,62,63,-10,-100,92,45,71,29.98,29.93,7,-426,10,0.00
2013-10-1,65,22,59,63,-44,-100,95,32,87,30.00,29.90,11,-651,12,0.00
2013-10-2,68,9,67,64,-78,-100,88,12,86,30.07,29.91,17,-860,20,0.00
2013-10-3,66,7,52,62,-83,-100,90,9,77,30.11,29.98,2,-883,3,0.02
2013-10-4,68,25,63,66,-37,-100,98,37,91,30.02,29.95,9,-614,13,0.03
2013-10-5,68,40,61,66,2,-100,98,60,90,30.05,29.95,6,-374,9,0.68
2013-10-6,82,37,60,71,-10,-100,99,49,66,29.94,29.64,11,-457,17,0.63
2013-10-7,76,23,56,66,-41,-100,94,32,64,30.04,29.62,22,-625,31,0.26
2013-10-8,61,12,54,49,-69,-100,79,14,62,30.31,30.04,12,-788,13,0.00
2013-10-9,61,17,44,51,-50,-100,93,30,68,30.37,30.24,5,-652,6,0.00
2013-10-10,70,10,45,45,-71,-100,91,16,34,30.26,30.11,3,-797,5,0.00
2013-10-11,53,9,46,49,-74,-100,91,16,86,30.14,30.08,1,-812,3,0.00
2013-10-12,68,32,45,59,-10,-100,94,51,48,30.16,30.06,6,-389,8,0.00
2013-10-13,69,51,59,62,22,-100,95,57,50,30.23,30.13,7,-206,16,0.00
2013-10-14,62,36,54,60,-4,-100,96,55,68,30.33,30.23,11,-355,15,0.11
2013-10-15,47,15,44,46,-55,-100,97,30,93,30.26,29.91,6,-676,7,0.00
2013-10-16,65,18,58,58,-54,-100,91,23,63,29.90,29.72,19,-702,23,0.11
2013-10-17,59,21,53,53,-44,-100,94,29,70,29.86,29.67,19,-627,27,0.83
2013-10-18,57,19,52,53,-46,-100,95,30,70,29.88,29.71,30,-634,34,0.34
2013-10-19,60,13,49,48,-64,-100,94,18,58,29.86,29.63,14,-745,20,0.23
2013-10-20,51,19,44,44,-45,-100,91,32,72,29.95,29.75,20,-595,27,0.26
2013-10-21,64,18,50,50,-52,-100,92,24,63,29.94,29.77,22,-649,22,0.26
2013-10-22,54,22,43,52,-36,-100,92,35,57,29.85,29.74,24,-540,29,0.36
2013-10-23,48,26,40,40,-17,-100,92,48,57,29.82,29.70,21,-384,23,0.01
2013-10-24,44,17,43,39,-46,-100,85,30,68,30.02,29.79,23,-595,28,0.00
2013-10-25,48,16,40,39,-50,-100,90,30,66,30.19,30.02,18,-634,27,0.03
2013-10-26,46,29,40,37,-11,-100,87,44,59,30.11,29.77,29,-322,33,0.05
2013-10-27,49,28,43,40,-16,-100,86,45,57,30.03,29.82,19,-377,23,0.00
2013-10-28,50,47,44,40,37,34,77,69,65,30.18,30.02,17,12,21,0.00